Year,Month,Day,Hour,Minute,Value (Times are PST for temperature in C)
2010,05,22,00,00,7.60
2010,05,22,00,01,7.60
2010,05,22,00,02,7.60
2010,05,22,00,03,7.50
2010,05,22,00,04,7.50
2010,05,22,00,05,7.50
2010,05,22,00,06,7.50
2010,05,22,00,07,7.60
2010,05,22,00,08,7.60
2010,05,22,00,09,7.60
2010,05,22,00,10,7.60
2010,05,22,00,11,7.70
2010,05,22,00,12,7.70
2010,05,22,00,13,7.70
2010,05,22,00,14,7.70
2010,05,22,00,15,7.70
2010,05,22,00,16,7.70
2010,05,22,00,17,7.70
2010,05,22,00,18,7.60
2010,05,22,00,19,7.60
2010,05,22,00,20,7.70
2010,05,22,00,21,7.70
2010,05,22,00,22,7.70
2010,05,22,00,23,7.70
2010,05,22,00,24,7.70
2010,05,22,00,25,7.70
2010,05,22,00,26,7.70
2010,05,22,00,27,7.70
2010,05,22,00,28,7.70
2010,05,22,00,29,7.70
2010,05,22,00,30,7.60
2010,05,22,00,31,7.60
2010,05,22,00,32,7.60
2010,05,22,00,33,7.60
2010,05,22,00,34,7.50
2010,05,22,00,35,7.40
2010,05,22,00,36,7.40
2010,05,22,00,37,7.40
2010,05,22,00,38,7.40
2010,05,22,00,39,7.40
2010,05,22,00,40,7.40
2010,05,22,00,41,7.40
2010,05,22,00,42,7.40
2010,05,22,00,43,7.40
2010,05,22,00,44,7.40
2010,05,22,00,45,7.40
2010,05,22,00,46,7.30
2010,05,22,00,47,7.30
2010,05,22,00,48,7.30
2010,05,22,00,49,7.30
2010,05,22,00,50,7.30
2010,05,22,00,51,7.30
2010,05,22,00,52,7.30
2010,05,22,00,53,7.20
2010,05,22,00,54,7.20
2010,05,22,00,55,7.20
2010,05,22,00,56,7.20
2010,05,22,00,57,7.20
2010,05,22,00,58,7.20
2010,05,22,00,59,7.20
2010,05,22,01,00,7.10
2010,05,22,01,01,7.10
2010,05,22,01,02,7.20
2010,05,22,01,03,7.20
2010,05,22,01,04,7.20
2010,05,22,01,05,7.20
2010,05,22,01,06,7.20
2010,05,22,01,07,7.10
2010,05,22,01,08,7.20
2010,05,22,01,09,7.20
2010,05,22,01,10,7.20
2010,05,22,01,11,7.20
2010,05,22,01,12,7.20
2010,05,22,01,13,7.20
2010,05,22,01,14,7.30
2010,05,22,01,15,7.30
2010,05,22,01,16,7.30
2010,05,22,01,17,7.30
2010,05,22,01,18,7.20
2010,05,22,01,19,7.20
2010,05,22,01,20,7.30
2010,05,22,01,21,7.30
2010,05,22,01,22,7.30
2010,05,22,01,23,7.30
2010,05,22,01,24,7.30
2010,05,22,01,25,7.40
2010,05,22,01,26,7.40
2010,05,22,01,27,7.40
2010,05,22,01,28,7.30
2010,05,22,01,29,7.30
2010,05,22,01,30,7.20
2010,05,22,01,31,7.20
2010,05,22,01,32,7.20
2010,05,22,01,33,7.20
2010,05,22,01,34,7.20
2010,05,22,01,35,7.30
2010,05,22,01,36,7.30
2010,05,22,01,37,7.40
2010,05,22,01,38,7.40
2010,05,22,01,39,7.40
2010,05,22,01,40,7.30
2010,05,22,01,41,7.20
2010,05,22,01,42,7.20
2010,05,22,01,43,7.20
2010,05,22,01,44,7.10
2010,05,22,01,45,7.00
2010,05,22,01,46,7.00
2010,05,22,01,47,6.90
2010,05,22,01,48,6.80
2010,05,22,01,49,6.70
2010,05,22,01,50,6.60
2010,05,22,01,51,6.50
2010,05,22,01,52,6.30
2010,05,22,01,53,6.30
2010,05,22,01,54,6.30
2010,05,22,01,55,6.40
2010,05,22,01,56,6.40
2010,05,22,01,57,6.40
2010,05,22,01,58,6.50
2010,05,22,01,59,6.50
2010,05,22,02,00,6.40
2010,05,22,02,01,6.50
2010,05,22,02,02,6.50
2010,05,22,02,03,6.60
2010,05,22,02,04,6.60
2010,05,22,02,05,6.70
2010,05,22,02,06,6.60
2010,05,22,02,07,6.70
2010,05,22,02,08,6.70
2010,05,22,02,09,6.70
2010,05,22,02,10,6.60
2010,05,22,02,11,6.60
2010,05,22,02,12,6.70
2010,05,22,02,13,6.70
2010,05,22,02,14,6.80
2010,05,22,02,15,6.70
2010,05,22,02,16,6.70
2010,05,22,02,17,6.60
2010,05,22,02,18,6.60
2010,05,22,02,19,6.60
2010,05,22,02,20,6.60
2010,05,22,02,21,6.50
2010,05,22,02,22,6.50
2010,05,22,02,23,6.60
2010,05,22,02,24,6.50
2010,05,22,02,25,6.40
2010,05,22,02,26,6.30
2010,05,22,02,27,6.20
2010,05,22,02,28,6.10
2010,05,22,02,29,6.10
2010,05,22,02,30,6.00
2010,05,22,02,31,5.90
2010,05,22,02,32,5.90
2010,05,22,02,33,5.90
2010,05,22,02,34,5.90
2010,05,22,02,35,5.90
2010,05,22,02,36,5.90
2010,05,22,02,37,6.00
2010,05,22,02,38,6.00
2010,05,22,02,39,6.10
2010,05,22,02,40,6.00
2010,05,22,02,41,6.10
2010,05,22,02,42,6.10
2010,05,22,02,43,6.20
2010,05,22,02,44,6.30
2010,05,22,02,45,6.60
2010,05,22,02,46,6.80
2010,05,22,02,47,6.90
2010,05,22,02,48,7.00
2010,05,22,02,49,7.00
2010,05,22,02,50,7.10
2010,05,22,02,51,7.10
2010,05,22,02,52,7.10
2010,05,22,02,53,7.20
2010,05,22,02,54,7.20
2010,05,22,02,55,7.20
2010,05,22,02,56,7.20
2010,05,22,02,57,7.20
2010,05,22,02,58,7.20
2010,05,22,02,59,7.20
2010,05,22,03,00,7.20
2010,05,22,03,01,7.20
2010,05,22,03,02,7.20
2010,05,22,03,03,7.20
2010,05,22,03,04,7.20
2010,05,22,03,05,7.20
2010,05,22,03,06,7.20
2010,05,22,03,07,7.20
2010,05,22,03,08,7.20
2010,05,22,03,09,7.20
2010,05,22,03,10,7.20
2010,05,22,03,11,7.20
2010,05,22,03,12,7.10
2010,05,22,03,13,7.10
2010,05,22,03,14,7.10
2010,05,22,03,15,7.00
2010,05,22,03,16,6.80
2010,05,22,03,17,6.70
2010,05,22,03,18,6.60
2010,05,22,03,19,6.60
2010,05,22,03,20,6.60
2010,05,22,03,21,6.50
2010,05,22,03,22,6.50
2010,05,22,03,23,6.50
2010,05,22,03,24,6.50
2010,05,22,03,25,6.50
2010,05,22,03,26,6.50
2010,05,22,03,27,6.50
2010,05,22,03,28,6.50
2010,05,22,03,29,6.40
2010,05,22,03,30,6.30
2010,05,22,03,31,6.20
2010,05,22,03,32,6.30
2010,05,22,03,33,6.30
2010,05,22,03,34,6.30
2010,05,22,03,35,6.20
2010,05,22,03,36,6.30
2010,05,22,03,37,6.40
2010,05,22,03,38,6.40
2010,05,22,03,39,6.40
2010,05,22,03,40,6.40
2010,05,22,03,41,6.30
2010,05,22,03,42,6.20
2010,05,22,03,43,6.10
2010,05,22,03,44,6.00
2010,05,22,03,45,6.00
2010,05,22,03,46,6.00
2010,05,22,03,47,6.10
2010,05,22,03,48,6.20
2010,05,22,03,49,6.30
2010,05,22,03,50,6.30
2010,05,22,03,51,6.30
2010,05,22,03,52,6.30
2010,05,22,03,53,6.40
2010,05,22,03,54,6.40
2010,05,22,03,55,6.30
2010,05,22,03,56,6.30
2010,05,22,03,57,6.10
2010,05,22,03,58,6.00
2010,05,22,03,59,6.00
2010,05,22,04,00,5.90
2010,05,22,04,01,5.90
2010,05,22,04,02,5.90
2010,05,22,04,03,5.80
2010,05,22,04,04,5.80
2010,05,22,04,05,5.80
2010,05,22,04,06,5.70
2010,05,22,04,07,5.70
2010,05,22,04,08,5.60
2010,05,22,04,09,5.50
2010,05,22,04,10,5.50
2010,05,22,04,11,5.50
2010,05,22,04,12,5.40
2010,05,22,04,13,5.40
2010,05,22,04,14,5.30
2010,05,22,04,15,5.30
2010,05,22,04,16,5.30
2010,05,22,04,17,5.30
2010,05,22,04,18,5.30
2010,05,22,04,19,5.40
2010,05,22,04,20,5.50
2010,05,22,04,21,5.60
2010,05,22,04,22,5.70
2010,05,22,04,23,5.80
2010,05,22,04,24,5.80
2010,05,22,04,25,5.80
2010,05,22,04,26,5.80
2010,05,22,04,27,5.70
2010,05,22,04,28,5.70
2010,05,22,04,29,5.70
2010,05,22,04,30,5.60
2010,05,22,04,31,5.70
2010,05,22,04,32,5.70
2010,05,22,04,33,5.70
2010,05,22,04,34,5.80
2010,05,22,04,35,5.80
2010,05,22,04,36,5.80
2010,05,22,04,37,5.80
2010,05,22,04,38,5.90
2010,05,22,04,39,6.00
2010,05,22,04,40,6.10
2010,05,22,04,41,6.10
2010,05,22,04,42,6.10
2010,05,22,04,43,6.00
2010,05,22,04,44,6.00
2010,05,22,04,45,6.00
2010,05,22,04,46,5.90
2010,05,22,04,47,5.90
2010,05,22,04,48,6.00
2010,05,22,04,49,6.00
2010,05,22,04,50,6.00
2010,05,22,04,51,6.10
2010,05,22,04,52,6.20
2010,05,22,04,53,6.20
2010,05,22,04,54,6.30
2010,05,22,04,55,6.30
2010,05,22,04,56,6.20
2010,05,22,04,57,6.20
2010,05,22,04,58,6.10
2010,05,22,04,59,6.10
2010,05,22,05,00,6.00
2010,05,22,05,01,6.00
2010,05,22,05,02,5.90
2010,05,22,05,03,5.90
2010,05,22,05,04,5.80
2010,05,22,05,05,5.70
2010,05,22,05,06,5.70
2010,05,22,05,07,5.70
2010,05,22,05,08,5.70
2010,05,22,05,09,5.70
2010,05,22,05,10,5.70
2010,05,22,05,11,5.70
2010,05,22,05,12,5.80
2010,05,22,05,13,5.80
2010,05,22,05,14,5.90
2010,05,22,05,15,5.90
2010,05,22,05,16,5.90
2010,05,22,05,17,5.90
2010,05,22,05,18,5.90
2010,05,22,05,19,5.90
2010,05,22,05,20,5.90
2010,05,22,05,21,5.80
2010,05,22,05,22,5.80
2010,05,22,05,23,5.90
2010,05,22,05,24,5.90
2010,05,22,05,25,5.80
2010,05,22,05,26,5.80
2010,05,22,05,27,5.90
2010,05,22,05,28,5.90
2010,05,22,05,29,5.90
2010,05,22,05,30,6.00
2010,05,22,05,31,6.00
2010,05,22,05,32,6.00
2010,05,22,05,33,5.90
2010,05,22,05,34,5.90
2010,05,22,05,35,5.80
2010,05,22,05,36,5.80
2010,05,22,05,37,5.80
2010,05,22,05,38,5.80
2010,05,22,05,39,5.80
2010,05,22,05,40,5.80
2010,05,22,05,41,5.80
2010,05,22,05,42,5.80
2010,05,22,05,43,5.80
2010,05,22,05,44,5.80
2010,05,22,05,45,5.80
2010,05,22,05,46,5.80
2010,05,22,05,47,5.80
2010,05,22,05,48,5.80
2010,05,22,05,49,5.70
2010,05,22,05,50,5.70
2010,05,22,05,51,5.60
2010,05,22,05,52,5.60
2010,05,22,05,53,5.60
2010,05,22,05,54,5.60
2010,05,22,05,55,5.60
2010,05,22,05,56,5.60
2010,05,22,05,57,5.70
2010,05,22,05,58,5.70
2010,05,22,05,59,5.80
2010,05,22,06,00,5.80
2010,05,22,06,01,5.90
2010,05,22,06,02,5.90
2010,05,22,06,03,5.90
2010,05,22,06,04,6.00
2010,05,22,06,05,6.10
2010,05,22,06,06,6.10
2010,05,22,06,07,6.10
2010,05,22,06,08,6.00
2010,05,22,06,09,6.00
2010,05,22,06,10,6.00
2010,05,22,06,11,5.90
2010,05,22,06,12,5.90
2010,05,22,06,13,5.90
2010,05,22,06,14,5.90
2010,05,22,06,15,6.00
2010,05,22,06,16,6.00
2010,05,22,06,17,6.00
2010,05,22,06,18,6.00
2010,05,22,06,19,6.00
2010,05,22,06,20,6.00
2010,05,22,06,21,6.00
2010,05,22,06,22,6.00
2010,05,22,06,23,6.10
2010,05,22,06,24,6.10
2010,05,22,06,25,6.10
2010,05,22,06,26,6.10
2010,05,22,06,27,6.10
2010,05,22,06,28,6.10
2010,05,22,06,29,6.10
2010,05,22,06,30,6.10
2010,05,22,06,31,6.10
2010,05,22,06,32,6.10
2010,05,22,06,33,6.10
2010,05,22,06,34,6.10
2010,05,22,06,35,6.10
2010,05,22,06,36,6.10
2010,05,22,06,37,6.10
2010,05,22,06,38,6.10
2010,05,22,06,39,6.10
2010,05,22,06,40,6.10
2010,05,22,06,41,6.00
2010,05,22,06,42,6.00
2010,05,22,06,43,5.90
2010,05,22,06,44,5.90
2010,05,22,06,45,5.90
2010,05,22,06,46,5.90
2010,05,22,06,47,5.90
2010,05,22,06,48,5.90
2010,05,22,06,49,5.90
2010,05,22,06,50,5.90
2010,05,22,06,51,6.00
2010,05,22,06,52,6.00
2010,05,22,06,53,6.10
2010,05,22,06,54,6.10
2010,05,22,06,55,6.10
2010,05,22,06,56,6.10
2010,05,22,06,57,6.20
2010,05,22,06,58,6.20
2010,05,22,06,59,6.20
2010,05,22,07,00,6.30
2010,05,22,07,01,6.30
2010,05,22,07,02,6.30
2010,05,22,07,03,6.40
2010,05,22,07,04,6.40
2010,05,22,07,05,6.40
2010,05,22,07,06,6.50
2010,05,22,07,07,6.50
2010,05,22,07,08,6.60
2010,05,22,07,09,6.60
2010,05,22,07,10,6.60
2010,05,22,07,11,6.70
2010,05,22,07,12,6.70
2010,05,22,07,13,6.80
2010,05,22,07,14,6.80
2010,05,22,07,15,6.90
2010,05,22,07,16,6.90
2010,05,22,07,17,7.00
2010,05,22,07,18,7.00
2010,05,22,07,19,7.10
2010,05,22,07,20,7.20
2010,05,22,07,21,7.20
2010,05,22,07,22,7.20
2010,05,22,07,23,7.30
2010,05,22,07,24,7.30
2010,05,22,07,25,7.30
2010,05,22,07,26,7.40
2010,05,22,07,27,7.40
2010,05,22,07,28,7.40
2010,05,22,07,29,7.50
2010,05,22,07,30,7.50
2010,05,22,07,31,7.60
2010,05,22,07,32,7.60
2010,05,22,07,33,7.60
2010,05,22,07,34,7.70
2010,05,22,07,35,7.70
2010,05,22,07,36,7.70
2010,05,22,07,37,7.80
2010,05,22,07,38,7.80
2010,05,22,07,39,7.80
2010,05,22,07,40,7.80
2010,05,22,07,41,7.90
2010,05,22,07,42,7.90
2010,05,22,07,43,7.90
2010,05,22,07,44,7.90
2010,05,22,07,45,8.00
2010,05,22,07,46,8.00
2010,05,22,07,47,8.10
2010,05,22,07,48,8.10
2010,05,22,07,49,8.10
2010,05,22,07,50,8.20
2010,05,22,07,51,8.20
2010,05,22,07,52,8.20
2010,05,22,07,53,8.30
2010,05,22,07,54,8.30
2010,05,22,07,55,8.40
2010,05,22,07,56,8.40
2010,05,22,07,57,8.50
2010,05,22,07,58,8.50
2010,05,22,07,59,8.60
2010,05,22,08,00,8.60
2010,05,22,08,01,8.60
2010,05,22,08,02,8.70
2010,05,22,08,03,8.70
2010,05,22,08,04,8.70
2010,05,22,08,05,8.70
2010,05,22,08,06,8.70
2010,05,22,08,07,8.70
2010,05,22,08,08,8.80
2010,05,22,08,09,8.80
2010,05,22,08,10,8.80
2010,05,22,08,11,8.80
2010,05,22,08,12,8.80
2010,05,22,08,13,8.80
2010,05,22,08,14,8.80
2010,05,22,08,15,8.90
2010,05,22,08,16,8.90
2010,05,22,08,17,8.90
2010,05,22,08,18,9.00
2010,05,22,08,19,9.00
2010,05,22,08,20,9.10
2010,05,22,08,21,9.10
2010,05,22,08,22,9.10
2010,05,22,08,23,9.10
2010,05,22,08,24,9.10
2010,05,22,08,25,9.10
2010,05,22,08,26,9.10
2010,05,22,08,27,9.10
2010,05,22,08,28,9.10
2010,05,22,08,29,9.10
2010,05,22,08,30,9.10
2010,05,22,08,31,9.00
2010,05,22,08,32,9.00
2010,05,22,08,33,9.00
2010,05,22,08,34,9.00
2010,05,22,08,35,9.00
2010,05,22,08,36,9.10
2010,05,22,08,37,9.10
2010,05,22,08,38,9.20
2010,05,22,08,39,9.20
2010,05,22,08,40,9.20
2010,05,22,08,41,9.30
2010,05,22,08,42,9.30
2010,05,22,08,43,9.30
2010,05,22,08,44,9.30
2010,05,22,08,45,9.30
2010,05,22,08,46,9.30
2010,05,22,08,47,9.30
2010,05,22,08,48,9.30
2010,05,22,08,49,9.30
2010,05,22,08,50,9.30
2010,05,22,08,51,9.30
2010,05,22,08,52,9.40
2010,05,22,08,53,9.40
2010,05,22,08,54,9.40
2010,05,22,08,55,9.40
2010,05,22,08,56,9.40
2010,05,22,08,57,9.40
2010,05,22,08,58,9.50
2010,05,22,08,59,9.60
2010,05,22,09,00,9.60
2010,05,22,09,01,9.60
2010,05,22,09,02,9.60
2010,05,22,09,03,9.60
2010,05,22,09,04,9.60
2010,05,22,09,05,9.60
2010,05,22,09,06,9.70
2010,05,22,09,07,9.70
2010,05,22,09,08,9.70
2010,05,22,09,09,9.70
2010,05,22,09,10,9.70
2010,05,22,09,11,9.70
2010,05,22,09,12,9.70
2010,05,22,09,13,9.80
2010,05,22,09,14,9.80
2010,05,22,09,15,9.80
2010,05,22,09,16,9.80
2010,05,22,09,17,9.80
2010,05,22,09,18,9.80
2010,05,22,09,19,9.80
2010,05,22,09,20,9.90
2010,05,22,09,21,9.90
2010,05,22,09,22,9.90
2010,05,22,09,23,10.00
2010,05,22,09,24,10.00
2010,05,22,09,25,10.00
2010,05,22,09,26,10.00
2010,05,22,09,27,10.10
2010,05,22,09,28,10.10
2010,05,22,09,29,10.10
2010,05,22,09,30,10.20
2010,05,22,09,31,10.20
2010,05,22,09,32,10.20
2010,05,22,09,33,10.20
2010,05,22,09,34,10.20
2010,05,22,09,35,10.20
2010,05,22,09,36,10.20
2010,05,22,09,37,10.20
2010,05,22,09,38,10.20
2010,05,22,09,39,10.20
2010,05,22,09,40,10.20
2010,05,22,09,41,10.20
2010,05,22,09,42,10.20
2010,05,22,09,43,10.30
2010,05,22,09,44,10.30
2010,05,22,09,45,10.30
2010,05,22,09,46,10.30
2010,05,22,09,47,10.30
2010,05,22,09,48,10.30
2010,05,22,09,49,10.20
2010,05,22,09,50,10.20
2010,05,22,09,51,10.20
2010,05,22,09,52,10.20
2010,05,22,09,53,10.20
2010,05,22,09,54,10.30
2010,05,22,09,55,10.40
2010,05,22,09,56,10.40
2010,05,22,09,57,10.50
2010,05,22,09,58,10.50
2010,05,22,09,59,10.60
2010,05,22,10,00,10.60
2010,05,22,10,01,10.60
2010,05,22,10,02,10.60
2010,05,22,10,03,10.70
2010,05,22,10,04,10.70
2010,05,22,10,05,10.70
2010,05,22,10,06,10.80
2010,05,22,10,07,10.80
2010,05,22,10,08,10.80
2010,05,22,10,09,10.80
2010,05,22,10,10,10.80
2010,05,22,10,11,10.70
2010,05,22,10,12,10.70
2010,05,22,10,13,10.80
2010,05,22,10,14,10.80
2010,05,22,10,15,10.70
2010,05,22,10,16,10.60
2010,05,22,10,17,10.50
2010,05,22,10,18,10.40
2010,05,22,10,19,10.30
2010,05,22,10,20,10.30
2010,05,22,10,21,10.40
2010,05,22,10,22,10.40
2010,05,22,10,23,10.50
2010,05,22,10,24,10.60
2010,05,22,10,25,10.70
2010,05,22,10,26,10.80
2010,05,22,10,27,10.80
2010,05,22,10,28,10.80
2010,05,22,10,29,10.80
2010,05,22,10,30,10.80
2010,05,22,10,31,10.80
2010,05,22,10,32,10.80
2010,05,22,10,33,10.80
2010,05,22,10,34,10.80
2010,05,22,10,35,10.80
2010,05,22,10,36,10.90
2010,05,22,10,37,11.00
2010,05,22,10,38,11.00
2010,05,22,10,39,11.00
2010,05,22,10,40,10.90
2010,05,22,10,41,11.00
2010,05,22,10,42,11.00
2010,05,22,10,43,11.10
2010,05,22,10,44,11.10
2010,05,22,10,45,11.10
2010,05,22,10,46,11.20
2010,05,22,10,47,11.30
2010,05,22,10,48,11.30
2010,05,22,10,49,11.40
2010,05,22,10,50,11.40
2010,05,22,10,51,11.20
2010,05,22,10,52,11.00
2010,05,22,10,53,10.90
2010,05,22,10,54,10.80
2010,05,22,10,55,10.80
2010,05,22,10,56,10.80
2010,05,22,10,57,10.80
2010,05,22,10,58,10.70
2010,05,22,10,59,10.60
2010,05,22,11,00,10.50
2010,05,22,11,01,10.50
2010,05,22,11,02,10.50
2010,05,22,11,03,10.50
2010,05,22,11,04,10.60
2010,05,22,11,05,10.60
2010,05,22,11,06,10.50
2010,05,22,11,07,10.50
2010,05,22,11,08,10.40
2010,05,22,11,09,10.40
2010,05,22,11,10,10.40
2010,05,22,11,11,10.40
2010,05,22,11,12,10.40
2010,05,22,11,13,10.50
2010,05,22,11,14,10.60
2010,05,22,11,15,10.60
2010,05,22,11,16,10.60
2010,05,22,11,17,10.50
2010,05,22,11,18,10.60
2010,05,22,11,19,10.60
2010,05,22,11,20,10.60
2010,05,22,11,21,10.60
2010,05,22,11,22,10.60
2010,05,22,11,23,10.60
2010,05,22,11,24,10.60
2010,05,22,11,25,10.70
2010,05,22,11,26,10.70
2010,05,22,11,27,10.80
2010,05,22,11,28,10.90
2010,05,22,11,29,10.90
2010,05,22,11,30,10.90
2010,05,22,11,31,10.90
2010,05,22,11,32,10.90
2010,05,22,11,33,10.90
2010,05,22,11,34,10.80
2010,05,22,11,35,10.80
2010,05,22,11,36,10.90
2010,05,22,11,37,10.90
2010,05,22,11,38,10.90
2010,05,22,11,39,10.90
2010,05,22,11,40,10.90
2010,05,22,11,41,10.90
2010,05,22,11,42,10.90
2010,05,22,11,43,10.90
2010,05,22,11,44,10.90
2010,05,22,11,45,11.00
2010,05,22,11,46,11.00
2010,05,22,11,47,11.10
2010,05,22,11,48,11.00
2010,05,22,11,49,11.00
2010,05,22,11,50,10.90
2010,05,22,11,51,10.90
2010,05,22,11,52,10.80
2010,05,22,11,53,10.80
2010,05,22,11,54,10.80
2010,05,22,11,55,10.80
2010,05,22,11,56,10.80
2010,05,22,11,57,10.80
2010,05,22,11,58,10.90
2010,05,22,11,59,11.00
2010,05,22,12,00,11.00
2010,05,22,12,01,11.10
2010,05,22,12,02,11.10
2010,05,22,12,03,11.10
2010,05,22,12,04,11.10
2010,05,22,12,05,11.10
2010,05,22,12,06,11.00
2010,05,22,12,07,10.90
2010,05,22,12,08,10.80
2010,05,22,12,09,10.80
2010,05,22,12,10,10.70
2010,05,22,12,11,10.70
2010,05,22,12,12,10.80
2010,05,22,12,13,10.80
2010,05,22,12,14,10.80
2010,05,22,12,15,10.80
2010,05,22,12,16,10.80
2010,05,22,12,17,10.80
2010,05,22,12,18,10.80
2010,05,22,12,19,10.80
2010,05,22,12,20,10.80
2010,05,22,12,21,10.70
2010,05,22,12,22,10.70
2010,05,22,12,23,10.80
2010,05,22,12,24,10.80
2010,05,22,12,25,10.90
2010,05,22,12,26,10.90
2010,05,22,12,27,10.90
2010,05,22,12,28,10.90
2010,05,22,12,29,10.90
2010,05,22,12,30,10.90
2010,05,22,12,31,10.80
2010,05,22,12,32,10.80
2010,05,22,12,33,10.80
2010,05,22,12,34,10.80
2010,05,22,12,35,10.80
2010,05,22,12,36,10.80
2010,05,22,12,37,10.90
2010,05,22,12,38,10.90
2010,05,22,12,39,10.90
2010,05,22,12,40,11.00
2010,05,22,12,41,11.00
2010,05,22,12,42,11.00
2010,05,22,12,43,11.10
2010,05,22,12,44,11.10
2010,05,22,12,45,11.10
2010,05,22,12,46,11.10
2010,05,22,12,47,11.10
2010,05,22,12,48,11.20
2010,05,22,12,49,11.30
2010,05,22,12,50,11.30
2010,05,22,12,51,11.30
2010,05,22,12,52,11.30
2010,05,22,12,53,11.30
2010,05,22,12,54,11.30
2010,05,22,12,55,11.30
2010,05,22,12,56,11.30
2010,05,22,12,57,11.30
2010,05,22,12,58,11.30
2010,05,22,12,59,11.40
2010,05,22,13,00,11.40
2010,05,22,13,01,11.40
2010,05,22,13,02,11.40
2010,05,22,13,03,11.50
2010,05,22,13,04,11.60
2010,05,22,13,05,11.60
2010,05,22,13,06,11.50
2010,05,22,13,07,11.50
2010,05,22,13,08,11.50
2010,05,22,13,09,11.50
2010,05,22,13,10,11.50
2010,05,22,13,11,11.50
2010,05,22,13,12,11.40
2010,05,22,13,13,11.40
2010,05,22,13,14,11.40
2010,05,22,13,15,11.40
2010,05,22,13,16,11.40
2010,05,22,13,17,11.50
2010,05,22,13,18,11.50
2010,05,22,13,19,11.60
2010,05,22,13,20,11.60
2010,05,22,13,21,11.60
2010,05,22,13,22,11.70
2010,05,22,13,23,11.70
2010,05,22,13,24,11.60
2010,05,22,13,25,11.60
2010,05,22,13,26,11.50
2010,05,22,13,27,11.40
2010,05,22,13,28,11.40
2010,05,22,13,29,11.40
2010,05,22,13,30,11.50
2010,05,22,13,31,11.60
2010,05,22,13,32,11.70
2010,05,22,13,33,11.70
2010,05,22,13,34,11.70
2010,05,22,13,35,11.70
2010,05,22,13,36,11.60
2010,05,22,13,37,11.60
2010,05,22,13,38,11.60
2010,05,22,13,39,11.60
2010,05,22,13,40,11.60
2010,05,22,13,41,11.60
2010,05,22,13,42,11.60
2010,05,22,13,43,11.70
2010,05,22,13,44,11.70
2010,05,22,13,45,11.60
2010,05,22,13,46,11.60
2010,05,22,13,47,11.60
2010,05,22,13,48,11.70
2010,05,22,13,49,11.60
2010,05,22,13,50,11.60
2010,05,22,13,51,11.60
2010,05,22,13,52,11.60
2010,05,22,13,53,11.60
2010,05,22,13,54,11.60
2010,05,22,13,55,11.50
2010,05,22,13,56,11.50
2010,05,22,13,57,11.50
2010,05,22,13,58,11.60
2010,05,22,13,59,11.70
2010,05,22,14,00,11.70
2010,05,22,14,01,11.60
2010,05,22,14,02,11.60
2010,05,22,14,03,11.60
2010,05,22,14,04,11.70
2010,05,22,14,05,11.70
2010,05,22,14,06,11.80
2010,05,22,14,07,11.80
2010,05,22,14,08,11.90
2010,05,22,14,09,11.90
2010,05,22,14,10,12.00
2010,05,22,14,11,12.10
2010,05,22,14,12,12.10
2010,05,22,14,13,12.10
2010,05,22,14,14,12.20
2010,05,22,14,15,12.30
2010,05,22,14,16,12.30
2010,05,22,14,17,12.30
2010,05,22,14,18,12.20
2010,05,22,14,19,12.00
2010,05,22,14,20,11.90
2010,05,22,14,21,11.80
2010,05,22,14,22,11.80
2010,05,22,14,23,11.80
2010,05,22,14,24,11.80
2010,05,22,14,25,11.80
2010,05,22,14,26,11.80
2010,05,22,14,27,11.80
2010,05,22,14,28,11.80
2010,05,22,14,29,11.80
2010,05,22,14,30,11.80
2010,05,22,14,31,11.80
2010,05,22,14,32,11.80
2010,05,22,14,33,11.80
2010,05,22,14,34,11.80
2010,05,22,14,35,11.70
2010,05,22,14,36,11.80
2010,05,22,14,37,11.80
2010,05,22,14,38,11.80
2010,05,22,14,39,11.70
2010,05,22,14,40,11.70
2010,05,22,14,41,11.70
2010,05,22,14,42,11.60
2010,05,22,14,43,11.60
2010,05,22,14,44,11.50
2010,05,22,14,45,11.50
2010,05,22,14,46,11.60
2010,05,22,14,47,11.60
2010,05,22,14,48,11.60
2010,05,22,14,49,11.60
2010,05,22,14,50,11.60
2010,05,22,14,51,11.70
2010,05,22,14,52,11.70
2010,05,22,14,53,11.70
2010,05,22,14,54,11.70
2010,05,22,14,55,11.70
2010,05,22,14,56,11.70
2010,05,22,14,57,11.70
2010,05,22,14,58,11.70
2010,05,22,14,59,11.70
2010,05,22,15,00,11.70
2010,05,22,15,01,11.70
2010,05,22,15,02,11.60
2010,05,22,15,03,11.60
2010,05,22,15,04,11.60
2010,05,22,15,05,11.60
2010,05,22,15,06,11.60
2010,05,22,15,07,11.60
2010,05,22,15,08,11.60
2010,05,22,15,09,11.60
2010,05,22,15,10,11.60
2010,05,22,15,11,11.60
2010,05,22,15,12,11.60
2010,05,22,15,13,11.60
2010,05,22,15,14,11.60
2010,05,22,15,15,11.60
2010,05,22,15,16,11.60
2010,05,22,15,17,11.60
2010,05,22,15,18,11.60
2010,05,22,15,19,11.60
2010,05,22,15,20,11.60
2010,05,22,15,21,11.60
2010,05,22,15,22,11.60
2010,05,22,15,23,11.60
2010,05,22,15,24,11.60
2010,05,22,15,25,11.60
2010,05,22,15,26,11.60
2010,05,22,15,27,11.60
2010,05,22,15,28,11.60
2010,05,22,15,29,11.60
2010,05,22,15,30,11.60
2010,05,22,15,31,11.60
2010,05,22,15,32,11.60
2010,05,22,15,33,11.60
2010,05,22,15,34,11.70
2010,05,22,15,35,11.60
2010,05,22,15,36,11.60
2010,05,22,15,37,11.60
2010,05,22,15,38,11.60
2010,05,22,15,39,11.60
2010,05,22,15,40,11.70
2010,05,22,15,41,11.70
2010,05,22,15,42,11.70
2010,05,22,15,43,11.80
2010,05,22,15,44,11.80
2010,05,22,15,45,11.90
2010,05,22,15,46,11.90
2010,05,22,15,47,11.90
2010,05,22,15,48,11.90
2010,05,22,15,49,11.80
2010,05,22,15,50,11.80
2010,05,22,15,51,11.80
2010,05,22,15,52,11.80
2010,05,22,15,53,11.70
2010,05,22,15,54,11.70
2010,05,22,15,55,11.70
2010,05,22,15,56,11.70
2010,05,22,15,57,11.70
2010,05,22,15,58,11.70
2010,05,22,15,59,11.70
2010,05,22,16,00,11.80
2010,05,22,16,01,11.80
2010,05,22,16,02,11.90
2010,05,22,16,03,11.90
2010,05,22,16,04,11.90
2010,05,22,16,05,11.90
2010,05,22,16,06,11.90
2010,05,22,16,07,12.00
2010,05,22,16,08,12.00
2010,05,22,16,09,12.00
2010,05,22,16,10,12.10
2010,05,22,16,11,12.10
2010,05,22,16,12,12.10
2010,05,22,16,13,12.10
2010,05,22,16,14,12.10
2010,05,22,16,15,12.20
2010,05,22,16,16,12.20
2010,05,22,16,17,12.10
2010,05,22,16,18,12.10
2010,05,22,16,19,12.00
2010,05,22,16,20,12.00
2010,05,22,16,21,11.90
2010,05,22,16,22,11.80
2010,05,22,16,23,11.80
2010,05,22,16,24,11.70
2010,05,22,16,25,11.70
2010,05,22,16,26,11.80
2010,05,22,16,27,11.80
2010,05,22,16,28,11.90
2010,05,22,16,29,12.00
2010,05,22,16,30,12.00
2010,05,22,16,31,12.10
2010,05,22,16,32,12.20
2010,05,22,16,33,12.10
2010,05,22,16,34,12.00
2010,05,22,16,35,12.00
2010,05,22,16,36,12.00
2010,05,22,16,37,12.00
2010,05,22,16,38,12.00
2010,05,22,16,39,12.10
2010,05,22,16,40,12.20
2010,05,22,16,41,12.30
2010,05,22,16,42,12.30
2010,05,22,16,43,12.40
2010,05,22,16,44,12.60
2010,05,22,16,45,12.70
2010,05,22,16,46,12.70
2010,05,22,16,47,12.70
2010,05,22,16,48,12.80
2010,05,22,16,49,12.90
2010,05,22,16,50,12.90
2010,05,22,16,51,13.10
2010,05,22,16,52,13.20
2010,05,22,16,53,13.20
2010,05,22,16,54,13.10
2010,05,22,16,55,13.10
2010,05,22,16,56,13.10
2010,05,22,16,57,13.10
2010,05,22,16,58,13.20
2010,05,22,16,59,13.30
2010,05,22,17,00,13.30
2010,05,22,17,01,13.30
2010,05,22,17,02,13.30
2010,05,22,17,03,13.30
2010,05,22,17,04,13.30
2010,05,22,17,05,13.30
2010,05,22,17,06,13.30
2010,05,22,17,07,13.40
2010,05,22,17,08,13.50
2010,05,22,17,09,13.60
2010,05,22,17,10,13.60
2010,05,22,17,11,13.70
2010,05,22,17,12,13.60
2010,05,22,17,13,13.60
2010,05,22,17,14,13.60
2010,05,22,17,15,13.60
2010,05,22,17,16,13.40
2010,05,22,17,17,13.20
2010,05,22,17,18,13.20
2010,05,22,17,19,13.20
2010,05,22,17,20,13.20
2010,05,22,17,21,13.20
2010,05,22,17,22,13.20
2010,05,22,17,23,13.20
2010,05,22,17,24,13.20
2010,05,22,17,25,13.20
2010,05,22,17,26,13.30
2010,05,22,17,27,13.20
2010,05,22,17,28,13.00
2010,05,22,17,29,13.00
2010,05,22,17,30,12.90
2010,05,22,17,31,12.90
2010,05,22,17,32,12.80
2010,05,22,17,33,12.80
2010,05,22,17,34,12.70
2010,05,22,17,35,12.70
2010,05,22,17,36,12.80
2010,05,22,17,37,12.80
2010,05,22,17,38,12.90
2010,05,22,17,39,12.90
2010,05,22,17,40,13.00
2010,05,22,17,41,13.00
2010,05,22,17,42,12.90
2010,05,22,17,43,12.90